Погода в Тчеве

Польша     54°05′31″N   18°46′39″E
темп.,
°C
ветер,
м/с
пор.,
м/с
влажн.,
%
обл.,
%
осадки,
мм/ч
давл.,
гПа
погр.,
м
13 июня, вс
вс1323:00+12зсз815635 0.0 1010793
02:00+11зсз815772 0.0 1010596
05:00+11зсз8158558 0.1 1011628
08:00+15сз8127762 0.1 1013823
11:00+18сз89605 0.0 10151250
14:00+19сз910545 0.1 10171525
17:00+18ссз79600 0.0 10181571
20:00+15ссз37760 0.0 1020195
14 июня, пн
пн1423:00+10зсз36922 0.0 1021113
02:00+9зсз34935 0.0 102248
05:00+9з22915 0.0 102230
08:00+15зсз34715 0.0 1022398
11:00+20зсз12540 0.0 10211150
14:00+22зсз03465 0.0 10201623
17:00+23св12485 0.0 10181087
20:00+17с468561 0.0 1018127
15 июня, вт
вт1523:00+13вюв0082100 0.0 101811
02:00+14ююз3483100 0.0 101752
05:00+15юз4886100 0.0 1017163
08:00+19зюз4775100 0.0 1017415
11:00+16зсз2796100 1.7 1018349
14:00+17зсз3580100 2.7 1018792
17:00+20ссз55555 0.0 10181333
20:00+15ссв23785 0.0 101860
16 июня, ср
ср1623:00+10сз33880 0.0 102030
02:00+9з22895 0.0 102114
05:00+9з22905 0.0 102129
08:00+15з11715 0.0 1022310
11:00+19ююв11550 0.0 10221052
14:00+21вюв21485 0.0 10221323
17:00+21вюв22515 0.0 10211142
20:00+18в22762 0.0 102128
17 июня, чт
чт1723:00+13вюв22895 0.0 102221
02:00+12ююв22890 0.0 102210
05:00+11ю22880 0.0 102225
08:00+17ююв35715 0.0 1022325
11:00+21юв45575 0.0 10221126
14:00+23юв56524 0.0 10221433
17:00+23юв46550 0.0 10211309
20:00+20юв34750 0.0 102049